Weather History for Pullman, WA

Change the Weather History Date:

Monday, June 17, 2013

  Actual Average Record
Temperature  
Mean Temperature 69 °F 59 °F  
Max Temperature 80 °F 72 °F 94 °F (1961)
Min Temperature 58 °F 46 °F 32 °F (1949)
Degree Days  
Heating Degree Days 0 7  
Month to date heating degree days 105 136  
Since 1 June heating degree days 105 136  
Since 1 July heating degree days 6184 6536  
Cooling Degree Days 4 0  
Month to date cooling degree days 9 0  
Year to date cooling degree days 21 5  
Since 1 June cooling degree days 9 0  
Growing Degree Days 18 (Base 50)    
Moisture  
Dew Point 47 °F    
Average Humidity 54    
Maximum Humidity 77    
Minimum Humidity 30    
Precipitation  
Precipitation T in 0.04 in 1.08 in (1965)
Month to date precipitation 0.02 0.65  
Year to date precipitation 6.52 9.16  
Sea Level Pressure  
Sea Level Pressure 29.94 in    
Wind  
Wind Speed 6 mph (WNW)    
Max Wind Speed 20 mph    
Max Gust Speed 30 mph    
Visibility 10 miles    
Events      
T = Trace of Precipitation, MM = Missing Value Source: NWS Daily Summary

Daily Weather History Graph

Daily Weather History Graph

Search for Another Location

Airport:

Trip Planner

Search our weather history database for the weather conditions in past years. The results will help you decide how hot, cold, wet, or windy it might be!

Date:

Astronomy

Jun. 17, 2013 Rise Set
Actual Time 4:53 AM PDT 8:45 PM PDT
Civil Twilight 4:14 AM PDT 9:24 PM PDT
Nautical Twilight 3:20 AM PDT 10:18 PM PDT
Astronomical Twilight 2:01 AM PDT 11:37 PM PDT
Moon 2:10 PM PDT (6/17) 12:52 AM PDT (6/17)
Length of Visible Light 17h 10m
Length of Day
15h 51m
First Quarter, 61% of the Moon is Illuminated
Jun 17
First Quarter
Jun 23
Full
Jun 29
Last Quarter
Jul 8
New
Jul 15
First Quarter

Hourly Weather History & Observations

Time (PDT) Temp. Dew Point Humidity Pressure Visibility Wind Dir Wind Speed Gust Speed Precip Events Conditions
12:53 AM 66.9 °F 45.0 °F 45% 29.95 in 10.0 mi West 12.7 mph 20.7 mph N/A   Clear
1:53 AM 64.9 °F 46.0 °F 50% 29.96 in 10.0 mi West 11.5 mph - N/A   Clear
2:53 AM 64.0 °F 45.0 °F 50% 29.96 in 10.0 mi West 15.0 mph 26.5 mph 0.00 in   Scattered Clouds
3:53 AM 62.1 °F 45.0 °F 53% 29.97 in 10.0 mi West 8.1 mph - N/A   Clear
4:53 AM 60.1 °F 44.1 °F 55% 29.99 in 10.0 mi West 4.6 mph - N/A   Clear
5:53 AM 59.0 °F 45.0 °F 60% 30.00 in 10.0 mi Calm Calm - N/A   Clear
6:53 AM 61.0 °F 45.0 °F 56% 30.01 in 10.0 mi West 3.5 mph - N/A   Clear
7:53 AM 64.0 °F 45.0 °F 50% 30.02 in 10.0 mi West 8.1 mph - N/A   Clear
8:53 AM 66.9 °F 46.0 °F 47% 30.02 in 10.0 mi WSW 10.4 mph - N/A   Clear
9:53 AM 70.0 °F 46.9 °F 44% 30.01 in 10.0 mi West 9.2 mph - N/A   Clear
10:53 AM 71.1 °F 46.9 °F 42% 30.02 in 10.0 mi WSW 8.1 mph - N/A   Clear
11:53 AM 73.0 °F 46.9 °F 39% 30.00 in 10.0 mi Variable 5.8 mph - N/A   Clear
12:53 PM 75.9 °F 46.0 °F 35% 29.97 in 10.0 mi NNW 5.8 mph - N/A   Clear
1:53 PM 77.0 °F 46.0 °F 33% 29.96 in 10.0 mi Variable 3.5 mph - N/A   Clear
2:53 PM 77.0 °F 45.0 °F 32% 29.94 in 10.0 mi Calm Calm - N/A   Clear
3:53 PM 78.1 °F 45.0 °F 31% 29.92 in 10.0 mi North 8.1 mph - N/A   Clear
4:53 PM 79.0 °F 45.0 °F 30% 29.89 in 10.0 mi North 10.4 mph 16.1 mph N/A   Clear
5:53 PM 77.0 °F 46.9 °F 34% 29.87 in 10.0 mi North 6.9 mph - N/A   Clear
6:53 PM 75.0 °F 50.0 °F 41% 29.86 in 10.0 mi North 5.8 mph - N/A   Clear
7:53 PM 73.0 °F 50.0 °F 44% 29.83 in 10.0 mi North 5.8 mph - N/A   Clear
8:53 PM 64.9 °F 52.0 °F 63% 29.84 in 10.0 mi Calm Calm - N/A   Clear
9:53 PM 62.1 °F 52.0 °F 70% 29.86 in 10.0 mi Calm Calm - N/A   Clear
10:53 PM 57.9 °F 50.0 °F 75% 29.84 in 10.0 mi Calm Calm - N/A   Clear
11:53 PM 61.0 °F 48.9 °F 64% 29.86 in 10.0 mi North - - N/A   Clear